Tracking 29892 objects as of 21-Nov-2024
HD Live streaming from Space Station
objects crossing your sky now

THORAD AGENA D DEB

Track THORAD AGENA D DEB now!
10-day predictions


NORAD ID: 4717
Int'l Code: 1970-025CB
Perigee: 1,060.0 km
Apogee: 1,064.1 km
Inclination: 100.1 °
Period: 106.3 minutes
Semi major axis: 7433 km
RCS: 0.0573 m2 (small)
Launch date: April 8, 1970
Source: United States (US)
Launch site: AIR FORCE WESTERN TEST RANGE (AFWTR)

Note: This is SATELLITE DEBRIS
Your satellite tracking list
Your tracking list is empty




NASA's NSSDC Master Catalog

Two Line Element Set (TLE):
1 04717U 70025CB  24325.64487816  .00000152  00000-0  28950-3 0  9998
2 04717 100.0793  20.3306 0002782 199.7866 312.3893 13.54731480695746
Source of the keplerian elements: AFSPC